owner,sensor,date,latitude,longitude,vertical_datum,sea_water_practical_salinity,qcFlag 
WAVCIS,ioos:station:WAVCIS:CSI16:1,2010-07-01T00:00:00Z,29.4012,-89.0355,1.0,18.062,11111222 
WAVCIS,ioos:station:WAVCIS:CSI16:1,2010-07-01T00:15:00Z,29.4012,-89.0355,1.0,18.13,11111222 
WAVCIS,ioos:station:WAVCIS:CSI16:1,2010-07-01T00:30:00Z,29.4012,-89.0355,1.0,18.49,11111222 
WAVCIS,ioos:station:WAVCIS:CSI16:1,2010-07-01T00:45:00Z,29.4012,-89.0355,1.0,18.812,11111222 
WAVCIS,ioos:station:WAVCIS:CSI16:1,2010-07-01T01:00:00Z,29.4012,-89.0355,1.0,19.55,11111222 
WAVCIS,ioos:station:WAVCIS:CSI16:1,2010-07-01T01:15:00Z,29.4012,-89.0355,1.0,19.774,11111222 
WAVCIS,ioos:station:WAVCIS:CSI16:1,2010-07-01T01:30:00Z,29.4012,-89.0355,1.0,20.503,11111222 
WAVCIS,ioos:station:WAVCIS:CSI16:1,2010-07-01T01:45:00Z,29.4012,-89.0355,1.0,20.937,11111222 
WAVCIS,ioos:station:WAVCIS:CSI16:1,2010-07-01T02:00:00Z,29.4012,-89.0355,1.0,21.151,11111222 
WAVCIS,ioos:station:WAVCIS:CSI16:1,2010-07-01T02:15:00Z,29.4012,-89.0355,1.0,21.143,11111222 
WAVCIS,ioos:station:WAVCIS:CSI16:1,2010-07-01T02:30:00Z,29.4012,-89.0355,1.0,21.17,11111222 
WAVCIS,ioos:station:WAVCIS:CSI16:1,2010-07-01T02:45:00Z,29.4012,-89.0355,1.0,21.377,11111222 
WAVCIS,ioos:station:WAVCIS:CSI16:1,2010-07-01T03:00:00Z,29.4012,-89.0355,1.0,21.51,11111222 
WAVCIS,ioos:station:WAVCIS:CSI16:1,2010-07-01T03:15:00Z,29.4012,-89.0355,1.0,20.819,11111222 
WAVCIS,ioos:station:WAVCIS:CSI16:1,2010-07-01T03:30:00Z,29.4012,-89.0355,1.0,21.058,11111222 
WAVCIS,ioos:station:WAVCIS:CSI16:1,2010-07-01T03:45:00Z,29.4012,-89.0355,1.0,20.832,11111222 
WAVCIS,ioos:station:WAVCIS:CSI16:1,2010-07-01T04:00:00Z,29.4012,-89.0355,1.0,21.01,11111222 
WAVCIS,ioos:station:WAVCIS:CSI16:1,2010-07-01T04:15:00Z,29.4012,-89.0355,1.0,21.075,11111222 
WAVCIS,ioos:station:WAVCIS:CSI16:1,2010-07-01T04:30:00Z,29.4012,-89.0355,1.0,21.0,11111222 
WAVCIS,ioos:station:WAVCIS:CSI16:1,2010-07-01T04:45:00Z,29.4012,-89.0355,1.0,21.17,11111222 
WAVCIS,ioos:station:WAVCIS:CSI16:1,2010-07-01T05:00:00Z,29.4012,-89.0355,1.0,21.217,11111222 
WAVCIS,ioos:station:WAVCIS:CSI16:1,2010-07-01T05:15:00Z,29.4012,-89.0355,1.0,21.22,11111222 
WAVCIS,ioos:station:WAVCIS:CSI16:1,2010-07-01T05:30:00Z,29.4012,-89.0355,1.0,21.238,11111222 
WAVCIS,ioos:station:WAVCIS:CSI16:1,2010-07-01T05:45:00Z,29.4012,-89.0355,1.0,21.09,11111222 
WAVCIS,ioos:station:WAVCIS:CSI16:1,2010-07-01T06:00:00Z,29.4012,-89.0355,1.0,21.084,11111222 
WAVCIS,ioos:station:WAVCIS:CSI16:1,2010-07-01T06:15:00Z,29.4012,-89.0355,1.0,21.259,11111222 
WAVCIS,ioos:station:WAVCIS:CSI16:1,2010-07-01T06:30:00Z,29.4012,-89.0355,1.0,21.293,11111222 
WAVCIS,ioos:station:WAVCIS:CSI16:1,2010-07-01T06:45:00Z,29.4012,-89.0355,1.0,21.476,11111222 
WAVCIS,ioos:station:WAVCIS:CSI16:1,2010-07-01T07:00:00Z,29.4012,-89.0355,1.0,21.475,11111222 
WAVCIS,ioos:station:WAVCIS:CSI16:1,2010-07-01T07:15:00Z,29.4012,-89.0355,1.0,21.451,11111222 
WAVCIS,ioos:station:WAVCIS:CSI16:1,2010-07-01T07:30:00Z,29.4012,-89.0355,1.0,21.475,11111222 
WAVCIS,ioos:station:WAVCIS:CSI16:1,2010-07-01T07:45:00Z,29.4012,-89.0355,1.0,21.575,11111222 
WAVCIS,ioos:station:WAVCIS:CSI16:1,2010-07-01T08:00:00Z,29.4012,-89.0355,1.0,21.667,11111222 
WAVCIS,ioos:station:WAVCIS:CSI16:1,2010-07-01T08:15:00Z,29.4012,-89.0355,1.0,21.706,11111222 
WAVCIS,ioos:station:WAVCIS:CSI16:1,2010-07-01T08:30:00Z,29.4012,-89.0355,1.0,21.739,11111222 
WAVCIS,ioos:station:WAVCIS:CSI16:1,2010-07-01T08:45:00Z,29.4012,-89.0355,1.0,21.891,11111222 
WAVCIS,ioos:station:WAVCIS:CSI16:1,2010-07-01T09:00:00Z,29.4012,-89.0355,1.0,21.885,11111222 
WAVCIS,ioos:station:WAVCIS:CSI16:1,2010-07-01T09:15:00Z,29.4012,-89.0355,1.0,21.962,11111222 
WAVCIS,ioos:station:WAVCIS:CSI16:1,2010-07-01T09:30:00Z,29.4012,-89.0355,1.0,22.023,11111222 
WAVCIS,ioos:station:WAVCIS:CSI16:1,2010-07-01T09:45:00Z,29.4012,-89.0355,1.0,22.085,11111222 
WAVCIS,ioos:station:WAVCIS:CSI16:1,2010-07-01T10:00:00Z,29.4012,-89.0355,1.0,22.147,11111222 
WAVCIS,ioos:station:WAVCIS:CSI16:1,2010-07-01T10:15:00Z,29.4012,-89.0355,1.0,21.655,11111222 
WAVCIS,ioos:station:WAVCIS:CSI16:1,2010-07-01T10:30:00Z,29.4012,-89.0355,1.0,19.364,11111222 
WAVCIS,ioos:station:WAVCIS:CSI16:1,2010-07-01T10:45:00Z,29.4012,-89.0355,1.0,19.564,11111222 
WAVCIS,ioos:station:WAVCIS:CSI16:1,2010-07-01T11:00:00Z,29.4012,-89.0355,1.0,19.161,11111222 
WAVCIS,ioos:station:WAVCIS:CSI16:1,2010-07-01T11:15:00Z,29.4012,-89.0355,1.0,18.888,11111222 
WAVCIS,ioos:station:WAVCIS:CSI16:1,2010-07-01T11:30:00Z,29.4012,-89.0355,1.0,18.637,11111222 
WAVCIS,ioos:station:WAVCIS:CSI16:1,2010-07-01T11:45:00Z,29.4012,-89.0355,1.0,18.66,11111222 
WAVCIS,ioos:station:WAVCIS:CSI16:1,2010-07-01T12:00:00Z,29.4012,-89.0355,1.0,18.456,11111222 
WAVCIS,ioos:station:WAVCIS:CSI16:1,2010-07-01T12:15:00Z,29.4012,-89.0355,1.0,17.011,11111222 
WAVCIS,ioos:station:WAVCIS:CSI16:1,2010-07-01T12:30:00Z,29.4012,-89.0355,1.0,16.472,11111222 
WAVCIS,ioos:station:WAVCIS:CSI16:1,2010-07-01T12:45:00Z,29.4012,-89.0355,1.0,16.083,11111222 
WAVCIS,ioos:station:WAVCIS:CSI16:1,2010-07-01T13:00:00Z,29.4012,-89.0355,1.0,17.206,11111222 
WAVCIS,ioos:station:WAVCIS:CSI16:1,2010-07-01T13:15:00Z,29.4012,-89.0355,1.0,19.696,11111222 
WAVCIS,ioos:station:WAVCIS:CSI16:1,2010-07-01T13:30:00Z,29.4012,-89.0355,1.0,16.647,11111222 
WAVCIS,ioos:station:WAVCIS:CSI16:1,2010-07-01T13:45:00Z,29.4012,-89.0355,1.0,17.638,11111222 
WAVCIS,ioos:station:WAVCIS:CSI16:1,2010-07-01T14:00:00Z,29.4012,-89.0355,1.0,17.291,11111222 
WAVCIS,ioos:station:WAVCIS:CSI16:1,2010-07-01T14:15:00Z,29.4012,-89.0355,1.0,17.17,11111222 
WAVCIS,ioos:station:WAVCIS:CSI16:1,2010-07-01T14:30:00Z,29.4012,-89.0355,1.0,16.745,11111222 
WAVCIS,ioos:station:WAVCIS:CSI16:1,2010-07-01T14:45:00Z,29.4012,-89.0355,1.0,16.337,11111222 
WAVCIS,ioos:station:WAVCIS:CSI16:1,2010-07-01T15:00:00Z,29.4012,-89.0355,1.0,16.555,11111222 
WAVCIS,ioos:station:WAVCIS:CSI16:1,2010-07-01T15:15:00Z,29.4012,-89.0355,1.0,17.731,11111222 
WAVCIS,ioos:station:WAVCIS:CSI16:1,2010-07-01T15:30:00Z,29.4012,-89.0355,1.0,17.692,11111222 
WAVCIS,ioos:station:WAVCIS:CSI16:1,2010-07-01T15:45:00Z,29.4012,-89.0355,1.0,18.841,11111222 
WAVCIS,ioos:station:WAVCIS:CSI16:1,2010-07-01T16:00:00Z,29.4012,-89.0355,1.0,18.122,11111222 
WAVCIS,ioos:station:WAVCIS:CSI16:1,2010-07-01T16:15:00Z,29.4012,-89.0355,1.0,18.354,11111222 
WAVCIS,ioos:station:WAVCIS:CSI16:1,2010-07-01T16:30:00Z,29.4012,-89.0355,1.0,18.547,11111222 
WAVCIS,ioos:station:WAVCIS:CSI16:1,2010-07-01T16:45:00Z,29.4012,-89.0355,1.0,17.404,11111222 
WAVCIS,ioos:station:WAVCIS:CSI16:1,2010-07-01T17:00:00Z,29.4012,-89.0355,1.0,18.438,11111222 
WAVCIS,ioos:station:WAVCIS:CSI16:1,2010-07-01T17:15:00Z,29.4012,-89.0355,1.0,17.972,11111222 
WAVCIS,ioos:station:WAVCIS:CSI16:1,2010-07-01T17:30:00Z,29.4012,-89.0355,1.0,19.84,11111222 
WAVCIS,ioos:station:WAVCIS:CSI16:1,2010-07-01T17:45:00Z,29.4012,-89.0355,1.0,20.666,11111222 
WAVCIS,ioos:station:WAVCIS:CSI16:1,2010-07-01T18:00:00Z,29.4012,-89.0355,1.0,17.867,11111222 
WAVCIS,ioos:station:WAVCIS:CSI16:1,2010-07-01T18:15:00Z,29.4012,-89.0355,1.0,19.802,11111222 
WAVCIS,ioos:station:WAVCIS:CSI16:1,2010-07-01T18:30:00Z,29.4012,-89.0355,1.0,19.957,11111222 
WAVCIS,ioos:station:WAVCIS:CSI16:1,2010-07-01T18:45:00Z,29.4012,-89.0355,1.0,18.684,11111222 
WAVCIS,ioos:station:WAVCIS:CSI16:1,2010-07-01T19:00:00Z,29.4012,-89.0355,1.0,18.927,11111222 
WAVCIS,ioos:station:WAVCIS:CSI16:1,2010-07-01T19:15:00Z,29.4012,-89.0355,1.0,17.055,11111222 
WAVCIS,ioos:station:WAVCIS:CSI16:1,2010-07-01T19:30:00Z,29.4012,-89.0355,1.0,17.843,11111222 
WAVCIS,ioos:station:WAVCIS:CSI16:1,2010-07-01T19:45:00Z,29.4012,-89.0355,1.0,17.883,11111222 
WAVCIS,ioos:station:WAVCIS:CSI16:1,2010-07-01T20:00:00Z,29.4012,-89.0355,1.0,20.289,11111222 
WAVCIS,ioos:station:WAVCIS:CSI16:1,2010-07-01T20:15:00Z,29.4012,-89.0355,1.0,19.816,11111222 
WAVCIS,ioos:station:WAVCIS:CSI16:1,2010-07-01T20:30:00Z,29.4012,-89.0355,1.0,20.089,11111222 
WAVCIS,ioos:station:WAVCIS:CSI16:1,2010-07-01T20:45:00Z,29.4012,-89.0355,1.0,17.158,11111222 
WAVCIS,ioos:station:WAVCIS:CSI16:1,2010-07-01T21:00:00Z,29.4012,-89.0355,1.0,16.156,11111222 
WAVCIS,ioos:station:WAVCIS:CSI16:1,2010-07-01T21:15:00Z,29.4012,-89.0355,1.0,14.825,11111222 
WAVCIS,ioos:station:WAVCIS:CSI16:1,2010-07-01T21:30:00Z,29.4012,-89.0355,1.0,13.837,11111222 
WAVCIS,ioos:station:WAVCIS:CSI16:1,2010-07-01T21:45:00Z,29.4012,-89.0355,1.0,13.693,11111222 
WAVCIS,ioos:station:WAVCIS:CSI16:1,2010-07-01T22:00:00Z,29.4012,-89.0355,1.0,12.96,11111222 
WAVCIS,ioos:station:WAVCIS:CSI16:1,2010-07-01T22:15:00Z,29.4012,-89.0355,1.0,12.764,11111222 
WAVCIS,ioos:station:WAVCIS:CSI16:1,2010-07-01T22:30:00Z,29.4012,-89.0355,1.0,12.655,11111222 
WAVCIS,ioos:station:WAVCIS:CSI16:1,2010-07-01T22:45:00Z,29.4012,-89.0355,1.0,12.473,11111222 
WAVCIS,ioos:station:WAVCIS:CSI16:1,2010-07-01T23:00:00Z,29.4012,-89.0355,1.0,12.366,11111222 
WAVCIS,ioos:station:WAVCIS:CSI16:1,2010-07-01T23:15:00Z,29.4012,-89.0355,1.0,12.316,11111222 
WAVCIS,ioos:station:WAVCIS:CSI16:1,2010-07-01T23:30:00Z,29.4012,-89.0355,1.0,12.13,11111222 
WAVCIS,ioos:station:WAVCIS:CSI16:1,2010-07-01T23:45:00Z,29.4012,-89.0355,1.0,12.521,11111222 
WAVCIS,ioos:station:WAVCIS:CSI16:1,2010-07-02T00:00:00Z,29.4012,-89.0355,1.0,11.81,11111222 
WAVCIS,ioos:station:WAVCIS:CSI16:1,2010-07-02T00:15:00Z,29.4012,-89.0355,1.0,12.141,11111222 
WAVCIS,ioos:station:WAVCIS:CSI16:1,2010-07-02T00:30:00Z,29.4012,-89.0355,1.0,12.051,11111222 
WAVCIS,ioos:station:WAVCIS:CSI16:1,2010-07-02T00:45:00Z,29.4012,-89.0355,1.0,12.299,11111222 
WAVCIS,ioos:station:WAVCIS:CSI16:1,2010-07-02T01:00:00Z,29.4012,-89.0355,1.0,13.598,11111222 
WAVCIS,ioos:station:WAVCIS:CSI16:1,2010-07-02T01:15:00Z,29.4012,-89.0355,1.0,14.807,11111222 
WAVCIS,ioos:station:WAVCIS:CSI16:1,2010-07-02T01:30:00Z,29.4012,-89.0355,1.0,16.219,11111222 
WAVCIS,ioos:station:WAVCIS:CSI16:1,2010-07-02T01:45:00Z,29.4012,-89.0355,1.0,16.105,11111222 
WAVCIS,ioos:station:WAVCIS:CSI16:1,2010-07-02T02:00:00Z,29.4012,-89.0355,1.0,15.837,11111222 
WAVCIS,ioos:station:WAVCIS:CSI16:1,2010-07-02T02:15:00Z,29.4012,-89.0355,1.0,17.693,11111222 
WAVCIS,ioos:station:WAVCIS:CSI16:1,2010-07-02T02:30:00Z,29.4012,-89.0355,1.0,18.855,11111222 
WAVCIS,ioos:station:WAVCIS:CSI16:1,2010-07-02T02:45:00Z,29.4012,-89.0355,1.0,19.456,11111222 
WAVCIS,ioos:station:WAVCIS:CSI16:1,2010-07-02T03:00:00Z,29.4012,-89.0355,1.0,19.067,11111222 
WAVCIS,ioos:station:WAVCIS:CSI16:1,2010-07-02T03:15:00Z,29.4012,-89.0355,1.0,19.539,11111222 
WAVCIS,ioos:station:WAVCIS:CSI16:1,2010-07-02T03:30:00Z,29.4012,-89.0355,1.0,19.374,11111222 
WAVCIS,ioos:station:WAVCIS:CSI16:1,2010-07-02T03:45:00Z,29.4012,-89.0355,1.0,18.904,11111222 
WAVCIS,ioos:station:WAVCIS:CSI16:1,2010-07-02T04:00:00Z,29.4012,-89.0355,1.0,19.888,11111222 
WAVCIS,ioos:station:WAVCIS:CSI16:1,2010-07-02T04:15:00Z,29.4012,-89.0355,1.0,19.756,11111222 
WAVCIS,ioos:station:WAVCIS:CSI16:1,2010-07-02T04:30:00Z,29.4012,-89.0355,1.0,19.507,11111222 
WAVCIS,ioos:station:WAVCIS:CSI16:1,2010-07-02T04:45:00Z,29.4012,-89.0355,1.0,19.59,11111222 
WAVCIS,ioos:station:WAVCIS:CSI16:1,2010-07-02T05:00:00Z,29.4012,-89.0355,1.0,19.589,11111222 
WAVCIS,ioos:station:WAVCIS:CSI16:1,2010-07-02T05:15:00Z,29.4012,-89.0355,1.0,20.458,11111222 
WAVCIS,ioos:station:WAVCIS:CSI16:1,2010-07-02T05:30:00Z,29.4012,-89.0355,1.0,20.309,11111222 
WAVCIS,ioos:station:WAVCIS:CSI16:1,2010-07-02T05:45:00Z,29.4012,-89.0355,1.0,20.798,11111222 
WAVCIS,ioos:station:WAVCIS:CSI16:1,2010-07-02T06:00:00Z,29.4012,-89.0355,1.0,20.989,11111222 
WAVCIS,ioos:station:WAVCIS:CSI16:1,2010-07-02T06:15:00Z,29.4012,-89.0355,1.0,20.792,11111222 
WAVCIS,ioos:station:WAVCIS:CSI16:1,2010-07-02T06:30:00Z,29.4012,-89.0355,1.0,21.01,11111222 
WAVCIS,ioos:station:WAVCIS:CSI16:1,2010-07-02T06:45:00Z,29.4012,-89.0355,1.0,20.989,11111222 
WAVCIS,ioos:station:WAVCIS:CSI16:1,2010-07-02T07:00:00Z,29.4012,-89.0355,1.0,21.128,11111222 
WAVCIS,ioos:station:WAVCIS:CSI16:1,2010-07-02T07:15:00Z,29.4012,-89.0355,1.0,21.289,11111222 
WAVCIS,ioos:station:WAVCIS:CSI16:1,2010-07-02T07:30:00Z,29.4012,-89.0355,1.0,21.261,11111222 
WAVCIS,ioos:station:WAVCIS:CSI16:1,2010-07-02T07:45:00Z,29.4012,-89.0355,1.0,21.135,11111222 
WAVCIS,ioos:station:WAVCIS:CSI16:1,2010-07-02T08:00:00Z,29.4012,-89.0355,1.0,21.203,11111222 
WAVCIS,ioos:station:WAVCIS:CSI16:1,2010-07-02T08:15:00Z,29.4012,-89.0355,1.0,21.188,11111222 
WAVCIS,ioos:station:WAVCIS:CSI16:1,2010-07-02T08:30:00Z,29.4012,-89.0355,1.0,21.278,11111222 
WAVCIS,ioos:station:WAVCIS:CSI16:1,2010-07-02T08:45:00Z,29.4012,-89.0355,1.0,21.324,11111222 
WAVCIS,ioos:station:WAVCIS:CSI16:1,2010-07-02T09:00:00Z,29.4012,-89.0355,1.0,21.427,11111222 
WAVCIS,ioos:station:WAVCIS:CSI16:1,2010-07-02T09:15:00Z,29.4012,-89.0355,1.0,21.542,11111222 
WAVCIS,ioos:station:WAVCIS:CSI16:1,2010-07-02T09:30:00Z,29.4012,-89.0355,1.0,21.611,11111222 
WAVCIS,ioos:station:WAVCIS:CSI16:1,2010-07-02T09:45:00Z,29.4012,-89.0355,1.0,21.706,11111222 
WAVCIS,ioos:station:WAVCIS:CSI16:1,2010-07-02T10:00:00Z,29.4012,-89.0355,1.0,21.697,11111222 
WAVCIS,ioos:station:WAVCIS:CSI16:1,2010-07-02T10:15:00Z,29.4012,-89.0355,1.0,21.67,11111222 
WAVCIS,ioos:station:WAVCIS:CSI16:1,2010-07-02T10:30:00Z,29.4012,-89.0355,1.0,21.711,11111222 
WAVCIS,ioos:station:WAVCIS:CSI16:1,2010-07-02T10:45:00Z,29.4012,-89.0355,1.0,21.713,11111222 
WAVCIS,ioos:station:WAVCIS:CSI16:1,2010-07-02T11:00:00Z,29.4012,-89.0355,1.0,21.747,11111222 
WAVCIS,ioos:station:WAVCIS:CSI16:1,2010-07-02T11:15:00Z,29.4012,-89.0355,1.0,21.831,11111222 
WAVCIS,ioos:station:WAVCIS:CSI16:1,2010-07-02T11:30:00Z,29.4012,-89.0355,1.0,21.798,11111222 
WAVCIS,ioos:station:WAVCIS:CSI16:1,2010-07-02T11:45:00Z,29.4012,-89.0355,1.0,21.834,11111222 
WAVCIS,ioos:station:WAVCIS:CSI16:1,2010-07-02T12:00:00Z,29.4012,-89.0355,1.0,21.844,11111222 
WAVCIS,ioos:station:WAVCIS:CSI16:1,2010-07-02T12:15:00Z,29.4012,-89.0355,1.0,21.857,11111222 
WAVCIS,ioos:station:WAVCIS:CSI16:1,2010-07-02T12:30:00Z,29.4012,-89.0355,1.0,21.871,11111222 
WAVCIS,ioos:station:WAVCIS:CSI16:1,2010-07-02T12:45:00Z,29.4012,-89.0355,1.0,21.903,11111222 
WAVCIS,ioos:station:WAVCIS:CSI16:1,2010-07-02T13:00:00Z,29.4012,-89.0355,1.0,21.874,11111222 
WAVCIS,ioos:station:WAVCIS:CSI16:1,2010-07-02T13:15:00Z,29.4012,-89.0355,1.0,18.277,11111222 
WAVCIS,ioos:station:WAVCIS:CSI16:1,2010-07-02T13:30:00Z,29.4012,-89.0355,1.0,18.366,11111222 
WAVCIS,ioos:station:WAVCIS:CSI16:1,2010-07-02T13:45:00Z,29.4012,-89.0355,1.0,17.678,11111222 
WAVCIS,ioos:station:WAVCIS:CSI16:1,2010-07-02T14:00:00Z,29.4012,-89.0355,1.0,17.433,11111222 
WAVCIS,ioos:station:WAVCIS:CSI16:1,2010-07-02T14:15:00Z,29.4012,-89.0355,1.0,16.125,11111222 
WAVCIS,ioos:station:WAVCIS:CSI16:1,2010-07-02T14:30:00Z,29.4012,-89.0355,1.0,17.022,11111222 
WAVCIS,ioos:station:WAVCIS:CSI16:1,2010-07-02T14:45:00Z,29.4012,-89.0355,1.0,17.926,11111222 
WAVCIS,ioos:station:WAVCIS:CSI16:1,2010-07-02T15:00:00Z,29.4012,-89.0355,1.0,18.055,11111222 
WAVCIS,ioos:station:WAVCIS:CSI16:1,2010-07-02T15:15:00Z,29.4012,-89.0355,1.0,18.019,11111222 
WAVCIS,ioos:station:WAVCIS:CSI16:1,2010-07-02T15:30:00Z,29.4012,-89.0355,1.0,19.149,11111222 
WAVCIS,ioos:station:WAVCIS:CSI16:1,2010-07-02T15:45:00Z,29.4012,-89.0355,1.0,19.2,11111222 
WAVCIS,ioos:station:WAVCIS:CSI16:1,2010-07-02T16:00:00Z,29.4012,-89.0355,1.0,17.802,11111222 
WAVCIS,ioos:station:WAVCIS:CSI16:1,2010-07-02T16:15:00Z,29.4012,-89.0355,1.0,17.247,11111222 
WAVCIS,ioos:station:WAVCIS:CSI16:1,2010-07-02T16:30:00Z,29.4012,-89.0355,1.0,18.07,11111222 
WAVCIS,ioos:station:WAVCIS:CSI16:1,2010-07-02T16:45:00Z,29.4012,-89.0355,1.0,18.317,11111222 
WAVCIS,ioos:station:WAVCIS:CSI16:1,2010-07-02T17:00:00Z,29.4012,-89.0355,1.0,19.556,11111222 
WAVCIS,ioos:station:WAVCIS:CSI16:1,2010-07-02T17:15:00Z,29.4012,-89.0355,1.0,18.346,11111222 
WAVCIS,ioos:station:WAVCIS:CSI16:1,2010-07-02T17:30:00Z,29.4012,-89.0355,1.0,18.957,11111222 
WAVCIS,ioos:station:WAVCIS:CSI16:1,2010-07-02T17:45:00Z,29.4012,-89.0355,1.0,18.47,11111222 
WAVCIS,ioos:station:WAVCIS:CSI16:1,2010-07-02T18:00:00Z,29.4012,-89.0355,1.0,18.791,11111222 
WAVCIS,ioos:station:WAVCIS:CSI16:1,2010-07-02T18:15:00Z,29.4012,-89.0355,1.0,18.808,11111222 
WAVCIS,ioos:station:WAVCIS:CSI16:1,2010-07-02T18:30:00Z,29.4012,-89.0355,1.0,19.032,11111222 
WAVCIS,ioos:station:WAVCIS:CSI16:1,2010-07-02T18:45:00Z,29.4012,-89.0355,1.0,17.871,11111222 
WAVCIS,ioos:station:WAVCIS:CSI16:1,2010-07-02T19:00:00Z,29.4012,-89.0355,1.0,18.988,11111222 
WAVCIS,ioos:station:WAVCIS:CSI16:1,2010-07-02T19:15:00Z,29.4012,-89.0355,1.0,17.658,11111222 
WAVCIS,ioos:station:WAVCIS:CSI16:1,2010-07-02T19:30:00Z,29.4012,-89.0355,1.0,17.731,11111222 
WAVCIS,ioos:station:WAVCIS:CSI16:1,2010-07-02T19:45:00Z,29.4012,-89.0355,1.0,20.774,11111222 
WAVCIS,ioos:station:WAVCIS:CSI16:1,2010-07-02T20:00:00Z,29.4012,-89.0355,1.0,18.873,11111222 
WAVCIS,ioos:station:WAVCIS:CSI16:1,2010-07-02T20:15:00Z,29.4012,-89.0355,1.0,19.677,11111222 
WAVCIS,ioos:station:WAVCIS:CSI16:1,2010-07-02T20:30:00Z,29.4012,-89.0355,1.0,20.074,11111222 
WAVCIS,ioos:station:WAVCIS:CSI16:1,2010-07-02T20:45:00Z,29.4012,-89.0355,1.0,20.249,11111222 
WAVCIS,ioos:station:WAVCIS:CSI16:1,2010-07-02T21:00:00Z,29.4012,-89.0355,1.0,20.14,11111222 
WAVCIS,ioos:station:WAVCIS:CSI16:1,2010-07-02T21:15:00Z,29.4012,-89.0355,1.0,20.526,11111222 
WAVCIS,ioos:station:WAVCIS:CSI16:1,2010-07-02T21:30:00Z,29.4012,-89.0355,1.0,20.433,11111222 
WAVCIS,ioos:station:WAVCIS:CSI16:1,2010-07-02T21:45:00Z,29.4012,-89.0355,1.0,19.941,11111222 
WAVCIS,ioos:station:WAVCIS:CSI16:1,2010-07-02T22:00:00Z,29.4012,-89.0355,1.0,19.659,11111222 
WAVCIS,ioos:station:WAVCIS:CSI16:1,2010-07-02T22:15:00Z,29.4012,-89.0355,1.0,19.164,11111222 
WAVCIS,ioos:station:WAVCIS:CSI16:1,2010-07-02T22:30:00Z,29.4012,-89.0355,1.0,17.753,11111222 
WAVCIS,ioos:station:WAVCIS:CSI16:1,2010-07-02T22:45:00Z,29.4012,-89.0355,1.0,18.091,11111222 
WAVCIS,ioos:station:WAVCIS:CSI16:1,2010-07-02T23:00:00Z,29.4012,-89.0355,1.0,18.698,11111222 
WAVCIS,ioos:station:WAVCIS:CSI16:1,2010-07-02T23:15:00Z,29.4012,-89.0355,1.0,18.256,11111222 
WAVCIS,ioos:station:WAVCIS:CSI16:1,2010-07-02T23:30:00Z,29.4012,-89.0355,1.0,18.586,11111222 
WAVCIS,ioos:station:WAVCIS:CSI16:1,2010-07-02T23:45:00Z,29.4012,-89.0355,1.0,18.172,11111222 
WAVCIS,ioos:station:WAVCIS:CSI16:1,2010-07-03T00:00:00Z,29.4012,-89.0355,1.0,17.774,11111222 
WAVCIS,ioos:station:WAVCIS:CSI16:1,2010-07-03T00:15:00Z,29.4012,-89.0355,1.0,16.949,11111222 
WAVCIS,ioos:station:WAVCIS:CSI16:1,2010-07-03T00:30:00Z,29.4012,-89.0355,1.0,16.781,11111222 
WAVCIS,ioos:station:WAVCIS:CSI16:1,2010-07-03T00:45:00Z,29.4012,-89.0355,1.0,17.11,11111222 
WAVCIS,ioos:station:WAVCIS:CSI16:1,2010-07-03T01:00:00Z,29.4012,-89.0355,1.0,16.363,11111222 
WAVCIS,ioos:station:WAVCIS:CSI16:1,2010-07-03T01:15:00Z,29.4012,-89.0355,1.0,16.018,11111222 
WAVCIS,ioos:station:WAVCIS:CSI16:1,2010-07-03T01:30:00Z,29.4012,-89.0355,1.0,16.016,11111222 
WAVCIS,ioos:station:WAVCIS:CSI16:1,2010-07-03T01:45:00Z,29.4012,-89.0355,1.0,16.315,11111222 
WAVCIS,ioos:station:WAVCIS:CSI16:1,2010-07-03T02:00:00Z,29.4012,-89.0355,1.0,15.728,11111222 
WAVCIS,ioos:station:WAVCIS:CSI16:1,2010-07-03T02:15:00Z,29.4012,-89.0355,1.0,16.318,11111222 
WAVCIS,ioos:station:WAVCIS:CSI16:1,2010-07-03T02:30:00Z,29.4012,-89.0355,1.0,15.191,11111222 
WAVCIS,ioos:station:WAVCIS:CSI16:1,2010-07-03T02:45:00Z,29.4012,-89.0355,1.0,14.907,11111222 
WAVCIS,ioos:station:WAVCIS:CSI16:1,2010-07-03T03:00:00Z,29.4012,-89.0355,1.0,14.692,11111222 
WAVCIS,ioos:station:WAVCIS:CSI16:1,2010-07-03T03:15:00Z,29.4012,-89.0355,1.0,14.941,11111222 
WAVCIS,ioos:station:WAVCIS:CSI16:1,2010-07-03T03:30:00Z,29.4012,-89.0355,1.0,16.029,11111222 
WAVCIS,ioos:station:WAVCIS:CSI16:1,2010-07-03T03:45:00Z,29.4012,-89.0355,1.0,15.64,11111222 
WAVCIS,ioos:station:WAVCIS:CSI16:1,2010-07-03T04:00:00Z,29.4012,-89.0355,1.0,15.722,11111222 
WAVCIS,ioos:station:WAVCIS:CSI16:1,2010-07-03T04:15:00Z,29.4012,-89.0355,1.0,18.565,11111222 
WAVCIS,ioos:station:WAVCIS:CSI16:1,2010-07-03T04:30:00Z,29.4012,-89.0355,1.0,19.618,11111222 
WAVCIS,ioos:station:WAVCIS:CSI16:1,2010-07-03T04:45:00Z,29.4012,-89.0355,1.0,20.197,11111222 
WAVCIS,ioos:station:WAVCIS:CSI16:1,2010-07-03T05:00:00Z,29.4012,-89.0355,1.0,20.315,11111222 
WAVCIS,ioos:station:WAVCIS:CSI16:1,2010-07-03T05:15:00Z,29.4012,-89.0355,1.0,19.659,11111222 
WAVCIS,ioos:station:WAVCIS:CSI16:1,2010-07-03T05:30:00Z,29.4012,-89.0355,1.0,20.082,11111222 
WAVCIS,ioos:station:WAVCIS:CSI16:1,2010-07-03T05:45:00Z,29.4012,-89.0355,1.0,20.983,11111222 
WAVCIS,ioos:station:WAVCIS:CSI16:1,2010-07-03T06:00:00Z,29.4012,-89.0355,1.0,20.692,11111222 
WAVCIS,ioos:station:WAVCIS:CSI16:1,2010-07-03T06:15:00Z,29.4012,-89.0355,1.0,21.171,11111222 
WAVCIS,ioos:station:WAVCIS:CSI16:1,2010-07-03T06:30:00Z,29.4012,-89.0355,1.0,20.29,11111222 
WAVCIS,ioos:station:WAVCIS:CSI16:1,2010-07-03T06:45:00Z,29.4012,-89.0355,1.0,20.329,11111222 
WAVCIS,ioos:station:WAVCIS:CSI16:1,2010-07-03T07:00:00Z,29.4012,-89.0355,1.0,20.245,11111222 
WAVCIS,ioos:station:WAVCIS:CSI16:1,2010-07-03T07:15:00Z,29.4012,-89.0355,1.0,20.558,11111222 
WAVCIS,ioos:station:WAVCIS:CSI16:1,2010-07-03T07:30:00Z,29.4012,-89.0355,1.0,20.712,11111222 
WAVCIS,ioos:station:WAVCIS:CSI16:1,2010-07-03T07:45:00Z,29.4012,-89.0355,1.0,20.957,11111222 
WAVCIS,ioos:station:WAVCIS:CSI16:1,2010-07-03T08:00:00Z,29.4012,-89.0355,1.0,21.141,11111222 
WAVCIS,ioos:station:WAVCIS:CSI16:1,2010-07-03T08:15:00Z,29.4012,-89.0355,1.0,21.34,11111222 
WAVCIS,ioos:station:WAVCIS:CSI16:1,2010-07-03T08:30:00Z,29.4012,-89.0355,1.0,21.435,11111222 
WAVCIS,ioos:station:WAVCIS:CSI16:1,2010-07-03T08:45:00Z,29.4012,-89.0355,1.0,21.585,11111222 
WAVCIS,ioos:station:WAVCIS:CSI16:1,2010-07-03T09:00:00Z,29.4012,-89.0355,1.0,21.677,11111222 
WAVCIS,ioos:station:WAVCIS:CSI16:1,2010-07-03T09:15:00Z,29.4012,-89.0355,1.0,21.762,11111222 
WAVCIS,ioos:station:WAVCIS:CSI16:1,2010-07-03T09:30:00Z,29.4012,-89.0355,1.0,21.874,11111222 
WAVCIS,ioos:station:WAVCIS:CSI16:1,2010-07-03T09:45:00Z,29.4012,-89.0355,1.0,21.925,11111222 
WAVCIS,ioos:station:WAVCIS:CSI16:1,2010-07-03T10:00:00Z,29.4012,-89.0355,1.0,21.971,11111222 
WAVCIS,ioos:station:WAVCIS:CSI16:1,2010-07-03T10:15:00Z,29.4012,-89.0355,1.0,22.028,11111222 
WAVCIS,ioos:station:WAVCIS:CSI16:1,2010-07-03T10:30:00Z,29.4012,-89.0355,1.0,22.07,11111222 
WAVCIS,ioos:station:WAVCIS:CSI16:1,2010-07-03T10:45:00Z,29.4012,-89.0355,1.0,22.086,11111222 
WAVCIS,ioos:station:WAVCIS:CSI16:1,2010-07-03T11:00:00Z,29.4012,-89.0355,1.0,22.121,11111222 
WAVCIS,ioos:station:WAVCIS:CSI16:1,2010-07-03T11:15:00Z,29.4012,-89.0355,1.0,22.149,11111222 
WAVCIS,ioos:station:WAVCIS:CSI16:1,2010-07-03T11:30:00Z,29.4012,-89.0355,1.0,22.172,11111222 
WAVCIS,ioos:station:WAVCIS:CSI16:1,2010-07-03T11:45:00Z,29.4012,-89.0355,1.0,22.2,11111222 
WAVCIS,ioos:station:WAVCIS:CSI16:1,2010-07-03T12:00:00Z,29.4012,-89.0355,1.0,22.218,11111222 
WAVCIS,ioos:station:WAVCIS:CSI16:1,2010-07-03T12:15:00Z,29.4012,-89.0355,1.0,22.253,11111222 
WAVCIS,ioos:station:WAVCIS:CSI16:1,2010-07-03T12:30:00Z,29.4012,-89.0355,1.0,22.257,11111222 
WAVCIS,ioos:station:WAVCIS:CSI16:1,2010-07-03T12:45:00Z,29.4012,-89.0355,1.0,22.282,11111222 
WAVCIS,ioos:station:WAVCIS:CSI16:1,2010-07-03T13:00:00Z,29.4012,-89.0355,1.0,22.24,11111222 
WAVCIS,ioos:station:WAVCIS:CSI16:1,2010-07-03T13:15:00Z,29.4012,-89.0355,1.0,22.248,11111222 
WAVCIS,ioos:station:WAVCIS:CSI16:1,2010-07-03T13:30:00Z,29.4012,-89.0355,1.0,22.236,11111222 
WAVCIS,ioos:station:WAVCIS:CSI16:1,2010-07-03T13:45:00Z,29.4012,-89.0355,1.0,22.208,11111222 
WAVCIS,ioos:station:WAVCIS:CSI16:1,2010-07-03T14:00:00Z,29.4012,-89.0355,1.0,22.193,11111222 
WAVCIS,ioos:station:WAVCIS:CSI16:1,2010-07-03T14:15:00Z,29.4012,-89.0355,1.0,22.205,11111222 
WAVCIS,ioos:station:WAVCIS:CSI16:1,2010-07-03T14:30:00Z,29.4012,-89.0355,1.0,22.191,11111222 
WAVCIS,ioos:station:WAVCIS:CSI16:1,2010-07-03T14:45:00Z,29.4012,-89.0355,1.0,22.184,11111222 
WAVCIS,ioos:station:WAVCIS:CSI16:1,2010-07-03T15:00:00Z,29.4012,-89.0355,1.0,22.174,11111222 
WAVCIS,ioos:station:WAVCIS:CSI16:1,2010-07-03T15:15:00Z,29.4012,-89.0355,1.0,22.19,11111222 